Skip Page Navigation
NASA JPL Caltech
NASA Logo - Jet Propulsion Laboratory + View the NASA Portal
+ Center for Near-Earth Object Studies
JPL Home Earth Solar System Stars & Galaxies Technology
JPL Solar System Dynamics
BODIES ORBITS EPHEMERIDES TOOLS PHYSICAL DATA DISCOVERY FAQ SITE MAP
IMPORTANT: The SSD Announcement email list is now available. Major changes are coming in the near future, including possible hostname and/or URL changes. To be notified of such changes, subscribe to this email list.

Please visit this page for more details.


JPL Small-Body Database Browser
Search: [ help ]  
35248 (1995 UR53)
Classification: Main-belt Asteroid          SPK-ID: 2035248
Ephemeris | Orbit Diagram | Orbital Elements | Mission Design | Physical Parameters | Discovery Circumstances | Close-Approach Data ]

[ show orbit diagram ]
Orbital Elements at Epoch 2458600.5 (2019-Apr-27.0) TDB
Reference: JPL 20 (heliocentric ecliptic J2000)
 Element Value Uncertainty (1-sigma)   Units 
e .2409319128383444 3.9116e-08  
a 3.178041078391226 1.5111e-08 au
q 2.412349562295593 1.2394e-07 au
i 1.447370809593812 3.9123e-06 deg
node 305.1245969287089 0.00017276 deg
peri 71.39634614745243 0.00017293 deg
M 43.15838229691734 7.2587e-06 deg
tp 2458352.415092981082
(2018-Aug-21.91509298)
4.112e-05 TDB
period 2069.367797717237
5.67
1.4759e-05
4.041e-08
d
yr
n .1739661747888044 1.2408e-09 deg/d
Q 3.943732594486859 1.8752e-08 au
  Orbit Determination Parameters
   # obs. used (total)      1378  
   data-arc span      9876 days (27.04 yr)  
   first obs. used      1992-03-02  
   last obs. used      2019-03-17  
   planetary ephem.      DE431  
   SB-pert. ephem.      SB431-N16  
   condition code      0  
   norm. resid. RMS      .47722  
   source      ORB  
   producer      Otto Matic  
   solution date      2019-Jul-13 01:46:07  

Additional Information
 Earth MOID = 1.41362 au 
 Jupiter MOID = 1.53075 au 
 T_jup = 3.154 
[ show covariance matrix ]

Ephemeris | Orbit Diagram | Orbital Elements | Mission Design | Physical Parameters | Discovery Circumstances | Close-Approach Data ]

Physical Parameter Table
Parameter Symbol Value Units Sigma Reference Notes
absolute magnitude H 13.8   n/a PDS3 (MPO 24152)  
diameter diameter 9.306 km 0.501 urn:nasa:pds:neowise_diameters_albedos::2.0[mainbelt] (http://adsabs.harvard.edu/abs/2011ApJ...741...68M)  
geometric albedo albedo 0.062   0.011 urn:nasa:pds:neowise_diameters_albedos::2.0[mainbelt] (http://adsabs.harvard.edu/abs/2011ApJ...741...68M)  

35248 (1995 UR53)          Discovered 1995-Oct-21 by Spacewatch at Kitt Peak
Reference: 20020227/Numbers.arcLast Updated: 2004-04-19

[ show close-approach data ]
Alternate Designations
 1995 UR53 = 1992 EN32 
Ephemeris | Orbit Diagram | Orbital Elements | Mission Design | Physical Parameters | Discovery Circumstances | Close-Approach Data ]
ABOUT SSD CREDITS/AWARDS PRIVACY/COPYRIGHT GLOSSARY LINKS
FirstGov 2019-Oct-18 12:43 UT
(server date/time)  
NASA Home Page
Site Manager:   Ryan S. Park
Webmaster  Alan B. Chamberlin